Location: Falniów
(50.3639°N, 19.9642°E)
Time: 22:11:32
(UTC+00:00)

Cosmos 2082 Rocket - Visible Passes

Search period start: 18 April 2026 00:00
Search period end: 28 April 2026 00:00
Orbit: 830 x 854 km, 71.0° (Epoch: 18 April)

Date Brightness Start Highest point End Pass type
(mag) Time Alt. Az. Time Alt. Az. Time Alt. Az.
18 Apr 2.6 00:16:18 46° SE 00:17:14 51° ESE 00:22:46 10° NE visible
18 Apr 3.2 01:58:07 19° WSW 02:01:31 36° NW 02:06:47 10° NNE visible
19 Apr 2.6 00:01:40 47° SE 00:02:20 49° ESE 00:07:49 10° NE visible
19 Apr 3.1 01:43:29 22° WSW 01:46:34 37° NW 01:51:53 10° NNE visible
19 Apr 2.7 23:47:00 46° ESE 23:47:26 47° ESE 23:52:54 10° NE visible
20 Apr 3.1 01:28:49 24° W 01:31:39 38° NW 01:36:59 10° NNE visible
20 Apr 2.7 23:32:19 45° ESE 23:32:32 45° ESE 23:37:58 10° NE visible
21 Apr 3.0 01:14:07 26° W 01:16:42 40° NW 01:22:05 10° NNE visible
21 Apr 2.8 23:17:36 43° ESE 23:17:39 43° ESE 23:23:02 10° NE visible
22 Apr 3.0 00:59:24 28° W 01:01:46 41° NW 01:07:11 10° NNE visible
22 Apr 4.4 02:44:37 10° NW 02:47:30 14° NNW 02:50:23 10° N visible
22 Apr 2.9 23:02:51 41° ESE 23:02:51 41° ESE 23:08:05 10° NE visible
23 Apr 3.0 00:44:39 30° W 00:46:50 42° NW 00:52:17 10° NNE visible
23 Apr 4.4 02:29:33 10° WNW 02:32:32 14° NNW 02:35:31 10° N visible
23 Apr 2.9 22:48:05 39° ESE 22:48:05 39° ESE 22:53:09 10° NE visible
24 Apr 2.9 00:29:52 32° W 00:31:54 44° NW 00:37:24 10° NNE visible
24 Apr 4.4 02:14:29 10° WNW 02:17:33 14° NNW 02:20:38 10° N visible
24 Apr 3.0 22:33:16 37° E 22:33:16 37° E 22:38:13 10° NE visible
25 Apr 2.9 00:15:04 34° W 00:16:59 46° NW 00:22:29 10° NNE visible
25 Apr 4.4 01:59:25 10° WNW 02:02:35 15° NNW 02:05:45 10° N visible
25 Apr 3.0 22:18:26 36° E 22:18:26 36° E 22:23:17 10° NE visible
26 Apr 2.9 00:00:13 36° W 00:02:03 47° NW 00:07:35 10° NNE visible
26 Apr 4.5 01:44:22 10° WNW 01:47:37 15° NNW 01:50:53 10° N visible
26 Apr 3.1 22:03:33 34° E 22:03:33 34° E 22:08:19 10° NE visible
26 Apr 2.8 23:45:21 37° W 23:47:07 49° NW 23:52:42 10° NNE visible
27 Apr 4.5 01:29:18 10° WNW 01:32:39 15° NNW 01:36:00 10° N visible
27 Apr 3.1 21:48:39 33° E 21:48:39 33° E 21:53:22 10° NE visible
27 Apr 2.8 23:30:26 38° WSW 23:32:12 51° NW 23:37:48 10° NNE visible
